Theta_e
308 308 306 304 304 303 302 302 300 301 300 299 298 299 299 298 299 299 298 298 297 295 295 295 293 294 292 292 292 291 290 289 286 288 289 290 289 289 289 290 291 291 291
307 304 303 303 302 302 301 300 300 300 300 298 298 298 298 298 298 297 296 295 294 293 293 292 291 291 290 290 290 288 288 288 286 283 285 286 286 287 288 288 288 288 290
305 303 302 302 301 301 300 300 300 299 298 298 298 297 297 296 295 295 294 293 293 292 292 291 290 289 288 288 287 286 286 286 286 284 283 285 285 286 286 287 287 288 288
302 301 300 300 301 300 300 300 299 299 297 297 297 297 296 295 294 293 293 292 292 292 291 290 289 288 287 285 284 284 284 283 282 282 281 282 284 285 285 284 284 287 286
302 300 300 300 300 300 299 299 299 298 297 297 297 296 295 294 293 292 292 292 290 289 290 289 288 286 284 283 283 282 282 281 280 280 280 281 282 282 282 284 283 284 286
300 299 299 299 298 298 298 298 297 296 296 296 296 295 294 293 285 285 285 289 289 288 287 287 287 287 286 284 284 282 282 280 280 280 280 279 280 281 283 283 283 282 280
298 298 298 297 297 297 296 296 295 295 296 295 295 294 294 293 285 283 283 287 287 287 287 286 285 285 285 284 283 282 282 283 282 282 280 281 281 282 282 281 282 282 282
297 297 296 296 295 296 295 295 295 295 295 294 294 294 293 291 284 283 282 286 288 287 287 286 285 285 283 281 280 280 281 282 283 282 282 281 282 282 282 282 282 283 284
296 295 295 295 294 294 293 294 295 294 294 293 293 293 292 290 284 283 282 286 286 286 286 286 285 283 281 280 279 278 279 280 283 283 282 282 283 284 284 283 282 281 280
294 294 294 295 294 293 294 294 294 294 293 292 292 292 288 290 284 283 282 285 285 285 286 285 282 280 279 278 278 277 277 279 279 279 280 282 283 284 284 284 284 281 281
294 294 294 294 294 294 294 293 293 292 292 292 290 291 291 289 288 283 282 283 284 283 283 283 284 280 279 278 278 277 278 278 278 279 280 281 282 283 283 285 285 284 282
293 293 293 293 293 293 292 292 293 292 291 290 289 289 289 289 286 283 282 281 282 282 282 283 283 280 278 278 278 278 277 277 280 279 279 279 280 280 282 284 286 286 287
292 291 292 293 293 292 291 292 291 291 290 289 288 287 288 289 289 285 283 281 280 281 283 282 280 279 278 279 279 278 277 279 278 277 277 278 280 281 283 284 285 286 286
290 291 292 291 291 292 291 291 290 289 289 288 287 287 287 287 288 288 285 284 282 282 283 283 281 280 279 278 280 281 280 280 277 277 277 279 280 281 281 283 282 283 284
290 290 290 290 291 290 290 291 290 290 289 288 288 288 288 287 286 286 285 285 285 283 280 281 281 281 280 281 281 280 280 280 278 277 277 277 278 278 279 281 281 282 281
288 289 290 290 290 290 289 289 288 286 286 285 285 285 289 286 284 283 283 282 281 281 280 280 281 281 280 279 279 279 280 279 278 277 277 277 276 277 277 279 280 280 279
288 288 289 288 289 288 288 288 286 289 286 285 285 284 284 285 285 285 283 282 282 280 279 280 281 281 281 280 280 279 278 279 277 278 277 277 276 276 277 278 278 278 278
289 286 289 290 290 288 287 287 288 287 286 287 286 285 285 285 284 284 284 283 281 281 280 280 280 281 281 280 280 280 279 279 278 277 277 277 277 276 275 276 277 277 277
290 290 291 291 290 288 288 286 287 286 286 286 288 285 285 284 284 284 284 282 281 281 281 282 283 282 281 281 281 280 279 278 277 277 277 276 277 276 276 275 276 276 276
292 288 287 290 289 288 288 286 286 286 286 286 286 286 287 285 284 283 284 284 283 283 283 282 283 283 283 282 281 281 279 279 278 278 277 277 277 276 276 275 275 274 275
292 291 287 289 289 288 287 287 286 286 286 286 286 287 285 285 285 285 285 285 284 284 284 283 284 284 283 282 281 280 279 279 278 277 277 277 276 275 276 276 276 275 275
291 290 289 289 289 288 287 287 287 286 286 285 286 287 284 285 285 285 286 285 286 286 286 285 284 284 283 282 282 281 280 279 278 278 277 276 275 276 276 276 276 275 275
288 287 287 287 287 286 287 287 286 286 286 286 286 286 286 285 285 285 285 286 286 286 286 286 285 284 284 284 284 282 280 279 279 279 277 275 275 276 275 275 275 275 274
288 287 286 285 285 285 285 285 286 285 286 286 285 285 285 286 285 285 285 286 286 286 286 285 285 284 284 284 283 282 281 281 280 278 275 275 274 275 275 274 274 274 274
286 286 285 285 285 285 285 285 285 285 285 285 285 285 286 285 286 285 286 286 286 285 285 285 285 284 283 283 283 281 281 280 278 278 276 274 274 273 272 273 273 273 274
285 286 286 285 285 285 284 283 283 284 284 284 285 285 285 286 286 286 286 286 286 286 286 285 285 284 283 283 283 282 281 278 275 274 275 275 274 274 274 274 273 273 273
Wind_Speed
9 6 5 4 5 5 4 3 4 5 8 10 10 11 11 12 11 9 11 12 12 8 8 8 10 10 9 10 10 10 11 11 14 12 12 14 16 16 14 14 14 14 13
7 5 6 7 6 5 5 4 5 7 9 10 11 11 12 11 11 12 11 9 7 9 9 10 11 10 13 14 11 14 13 14 13 18 15 12 15 16 15 16 13 13 13
6 9 7 7 6 6 5 5 6 8 10 10 11 11 10 11 8 9 7 5 7 7 8 10 12 13 13 11 12 12 12 12 12 10 12 10 11 12 14 14 14 13 11
7 5 9 5 6 6 6 6 8 9 10 10 10 9 7 10 6 6 6 6 6 9 10 11 12 11 11 12 12 13 12 12 12 10 11 12 12 13 12 12 11 10 11
8 9 6 5 6 6 6 7 8 9 9 11 10 7 7 6 3 6 8 8 10 12 10 10 10 7 6 8 7 12 13 11 10 10 11 11 10 11 13 11 12 11 11
8 7 6 5 6 6 7 7 9 9 10 11 8 7 7 5 10 7 6 9 11 11 10 10 10 10 6 8 15 9 12 13 15 12 12 12 15 13 12 11 11 11 11
7 6 5 5 6 6 8 9 10 10 10 10 9 6 8 4 8 4 3 8 11 8 9 10 10 8 7 11 13 14 15 18 15 14 15 14 14 14 14 14 14 12 12
6 6 5 5 7 8 9 10 10 9 10 10 7 7 8 2 11 6 4 10 9 9 9 10 10 10 9 10 12 14 15 15 14 10 12 13 15 16 15 14 15 15 12
5 5 5 7 8 9 10 11 9 10 10 9 8 7 7 4 12 8 5 8 8 9 9 9 7 9 9 13 12 13 15 14 13 15 17 20 20 22 20 11 11 10 10
5 6 7 7 8 10 10 11 9 9 10 8 8 7 1 2 10 9 5 6 7 7 8 9 4 4 6 11 11 12 12 13 15 15 14 14 14 14 12 11 10 11 10
4 5 8 8 10 10 10 9 9 10 9 7 5 6 7 5 6 9 7 5 6 6 7 7 6 9 11 13 13 10 10 14 14 12 11 10 9 10 10 11 12 10 10
6 8 9 9 9 8 10 9 11 10 8 6 3 6 4 8 8 13 11 9 7 7 8 7 7 13 14 14 12 9 14 13 8 7 9 9 8 9 9 11 12 11 10
6 8 10 10 9 9 10 11 9 9 7 7 5 6 7 7 6 10 13 11 10 7 7 7 11 12 12 11 5 10 11 6 8 7 8 8 8 9 11 10 11 13 11
8 9 9 9 9 10 8 10 7 5 8 7 6 7 6 5 5 4 7 8 12 8 10 5 8 10 11 12 9 6 5 5 7 8 8 9 8 9 8 8 9 9 9
8 8 8 7 9 10 10 8 6 7 7 7 7 7 5 6 5 4 5 5 4 1 4 6 7 5 6 6 6 6 6 5 6 6 8 9 8 8 8 8 8 9 9
7 6 5 6 8 8 8 9 6 8 7 8 9 6 5 6 4 8 9 9 7 6 6 7 7 5 5 6 6 6 6 6 6 7 6 7 8 9 8 8 8 8 9
8 7 7 7 8 8 8 9 9 7 13 12 13 14 13 11 10 13 13 13 12 8 7 8 7 5 5 7 6 5 6 5 6 6 7 7 7 8 10 8 7 8 8
10 9 9 9 7 7 9 9 8 8 8 7 14 16 17 17 16 16 14 12 9 10 9 8 7 6 6 7 6 5 5 5 5 6 7 6 7 7 8 9 8 8 9
10 9 8 7 7 8 8 8 9 9 9 9 8 6 11 15 15 15 14 10 9 9 8 9 8 7 6 6 5 4 4 5 5 5 6 6 6 7 7 7 8 9 10
12 9 7 9 8 9 7 8 9 9 9 8 8 8 6 8 8 9 9 10 9 9 7 8 8 7 6 5 5 4 5 6 5 4 4 5 5 6 7 7 6 8 8
9 9 5 9 8 9 8 8 8 9 9 9 8 7 8 7 8 8 8 8 9 9 8 8 7 7 6 6 6 6 6 5 5 4 4 4 4 6 6 6 6 6 7
9 9 9 9 8 9 9 9 8 9 10 9 8 7 11 8 8 9 8 8 8 8 8 8 8 7 7 8 7 7 6 6 5 4 4 3 5 5 5 6 6 6 6
7 8 9 8 7 11 10 10 10 9 9 8 8 8 7 8 9 9 9 8 8 8 8 9 8 8 7 7 6 7 7 7 5 4 4 4 4 4 4 5 6 5 6
9 9 9 7 7 9 10 11 10 10 9 8 7 7 8 8 8 9 9 9 9 9 9 9 10 11 9 9 8 7 7 6 4 5 6 5 4 4 4 4 5 5 5
9 8 7 8 8 8 9 9 9 8 8 7 7 7 7 7 8 8 9 9 9 10 11 10 10 13 15 15 12 13 12 11 8 7 6 6 5 4 4 4 4 5 4
11 12 9 7 7 7 7 7 8 7 7 7 7 7 7 7 7 7 7 8 8 9 11 9 11 16 16 14 15 14 14 13 10 8 6 6 5 5 5 4 4 4 5
Wind_Direction
168 156 168 183 201 226 247 281 300 310 308 310 307 308 303 298 302 325 305 298 296 291 301 295 292 299 282 284 295 301 297 296 297 305 307 311 311 309 305 304 298 292 284
158 149 194 212 224 237 264 279 295 302 307 307 308 299 307 327 323 303 303 311 322 316 311 305 306 295 309 311 307 306 307 305 300 304 309 306 301 303 300 297 291 297 298
180 196 211 220 237 269 275 273 288 302 305 305 300 307 321 316 302 303 321 317 297 303 303 295 301 316 311 308 314 313 306 303 310 310 301 299 299 298 299 294 289 284 289
185 212 234 244 272 274 271 279 290 303 302 298 299 305 308 297 315 288 301 304 316 296 299 321 312 305 311 332 311 311 309 315 311 301 300 301 300 301 296 295 303 295 297
214 225 246 260 268 265 266 274 294 294 290 290 295 321 296 291 289 356 326 308 318 317 315 302 305 344 302 292 293 307 312 308 303 297 294 296 302 306 299 297 294 303 300
211 228 253 269 271 269 277 290 284 287 290 294 296 293 300 287 97 65 339 314 312 309 307 312 311 302 295 291 272 288 293 296 296 293 300 297 298 300 310 308 303 295 296
224 239 258 267 265 274 279 284 287 295 295 287 285 282 269 260 128 121 316 301 306 310 308 311 312 310 300 338 332 314 297 280 265 272 285 294 304 308 313 310 308 302 296
236 264 266 258 266 273 284 284 281 286 294 287 280 272 264 154 152 148 271 289 302 301 311 306 305 327 10 349 325 304 308 306 305 315 312 310 305 304 299 296 300 296 291
243 272 274 267 270 278 281 285 290 290 292 287 279 253 261 182 160 159 256 299 298 309 306 302 324 309 11 348 316 314 308 307 309 324 317 303 291 285 277 283 281 289 290
315 294 280 284 284 281 288 288 288 284 277 279 289 293 334 245 169 171 225 292 299 294 301 309 141 24 348 326 313 311 305 310 328 315 307 305 302 302 290 272 280 275 277
287 290 280 283 286 287 295 294 280 279 289 297 285 278 288 218 211 186 197 274 285 311 302 304 310 23 341 318 313 297 315 316 307 300 308 305 311 323 327 325 317 308 298
305 288 290 294 292 296 295 279 271 276 278 267 230 248 257 252 225 191 199 226 293 284 287 301 322 340 317 309 300 311 310 301 297 315 309 318 324 326 316 310 309 303 287
289 293 293 296 296 287 276 282 288 294 285 267 251 236 246 240 236 192 196 214 232 253 281 298 294 296 294 290 291 287 282 313 321 317 317 319 320 318 315 315 318 310 311
286 289 299 296 296 295 289 271 273 272 278 273 263 261 260 272 269 218 210 209 233 242 255 261 302 271 265 261 271 292 310 318 315 314 322 315 317 323 324 327 323 331 328
302 302 298 294 291 293 286 290 303 278 264 270 260 256 249 246 258 238 249 230 236 271 317 290 280 299 309 309 311 312 309 321 316 332 322 321 326 330 326 328 329 333 335
288 291 293 298 287 284 292 293 279 251 250 240 258 247 255 245 190 205 229 234 237 244 263 277 281 285 292 300 301 305 310 317 339 315 326 324 330 331 329 328 337 340 338
277 286 285 278 286 303 297 291 286 270 230 232 232 236 231 238 231 232 230 229 230 219 242 261 273 278 281 284 294 300 308 331 311 319 323 327 331 329 324 333 342 342 337
263 256 264 273 293 293 287 288 292 284 282 263 230 233 236 233 231 237 232 227 237 220 246 261 262 260 264 273 288 299 316 316 311 329 315 331 324 327 330 337 336 347 338
273 271 275 286 282 277 281 277 279 274 272 273 271 233 226 232 228 229 226 229 241 233 237 236 246 251 256 266 277 288 289 292 312 292 306 321 324 326 328 338 329 339 321
272 261 250 269 274 276 269 274 275 270 265 268 263 249 221 215 214 218 219 227 237 242 236 255 266 261 251 255 261 255 263 257 268 282 315 306 319 321 322 330 337 332 337
277 281 280 281 267 271 272 266 275 274 270 271 266 245 220 233 242 236 225 223 228 230 225 233 241 251 242 232 238 253 253 268 275 283 291 302 320 304 320 320 328 334 334
289 286 278 271 273 274 275 270 273 278 276 273 273 250 219 223 232 247 247 236 233 232 228 223 232 229 228 227 230 227 235 246 247 256 268 284 282 303 314 315 322 336 340
284 270 274 275 276 283 281 270 266 262 265 266 269 267 241 221 226 226 236 244 239 234 227 224 219 224 220 220 212 227 232 235 232 229 250 261 274 292 319 310 321 326 346
265 269 271 273 275 274 280 281 275 265 264 270 270 270 264 246 235 233 236 235 232 233 234 225 219 216 216 216 201 202 227 224 208 206 214 248 264 262 291 309 302 327 315
290 263 254 263 273 285 287 287 287 280 267 266 266 270 272 263 257 248 245 242 240 237 232 224 219 216 211 216 202 195 208 200 198 205 192 223 244 258 260 282 296 301 317
285 272 252 254 279 297 308 320 323 319 313 303 288 270 259 260 263 260 255 252 254 247 239 228 219 213 206 211 210 201 198 177 180 185 206 221 227 236 245 256 267 286 295